Location: Bord�res
(43.2000°N, 0.2167°W)
Time: 11:46:59
(UTC+00:00)

Meteor 2-4 Rocket - Pass Details

Date: 03 March 2021
Orbit: 799 x 908 km, 81.2° (Epoch: 20 April)

Event Time Altitude Azimuth Distance (km) Brightness Sun altitude
Rises 18:46:21 0° 354° (N) 3,492 7.0 -10.6°
Reaches altitude 10° 18:48:52 10° 360° (N) 2,562 6.2 -11.0°
Maximum altitude 18:54:33 50° 75° (ENE) 1,133 4.0 -12.1°
Drops below altitude 10° 19:00:17 10° 151° (SSE) 2,584 5.9 -13.1°
Sets 19:02:50 0° 156° (SSE) 3,523 6.7 -13.6°
